Regional Weather Roundup
Issued by NWS

Home | Current Version | Previous Version | Graphics & Text | Print | Product List | Glossary On
Versions: 1 2 3 4 5 6 7 8 9 10 11 12 13 14 15 16 17 18 19 20 21 22 23 24 25 26 27 28 29 30 31 32 33 34 35 36 37 38 39 40 41 42 43 44 45 46 47 48 49 50
000
ASUS43 KLMK 212302
RWRKY
KENTUCKY REGIONAL WEATHER ROUNDUP
NATIONAL WEATHER SERVICE LOUISVILLE KY
700 PM EDT THU SEP 21 2017

NOTE "FAIR" INDICATES FEW OR NO CLOUDS BELOW 12,000 FEET
WITH NO SIGNIFICANT WEATHER AND/OR OBSTRUCTIONS TO VISIBILITY.

KYZ001>023-026-027-061>063-070>075-220000-
WESTERN AND SOUTH CENTRAL KENTUCKY

CITY           SKY/WX    TMP DP  RH WIND       PRES   REMARKS
PADUCAH        CLEAR     89  70  53 E6        29.98S HX  94
HENDERSON      CLEAR     89  70  53 SE5       29.99F HX  94
OWENSBORO      CLEAR     90  69  50 S6        30.00S HX  94
HOPKINSVILLE   CLEAR     83  69  63 SW6       30.00S
BOWLING GREEN  CLEAR     87  67  51 NE5       30.01S HX  90
GLASGOW        CLEAR     83  68  59 CALM      30.02S
$$

KYZ024-025-028>034-038-045-046-053-220000-
NORTH CENTRAL KENTUCKY

CITY           SKY/WX    TMP DP  RH WIND       PRES   REMARKS
LOUISVILLE/SDF PTCLDY    88  67  49 CALM      30.01S HX  91
LOUISVILLE/LOU CLEAR     87  70  56 CALM      30.01F HX  92
FORT KNOX      CLEAR     84  72  67 N3        30.01F HX  90
$$

KYZ035>037-039>044-047>052-055>060-089>105-220000-
NORTHEAST KENTUCKY

CITY           SKY/WX    TMP DP  RH WIND       PRES   REMARKS
LEXINGTON      CLEAR     84  65  52 E7        30.05S
COVINGTON      MOCLDY    80  71  74 W6        30.05R THUNDER
FRANKFORT      CLEAR     85  67  54 E3        30.03S
$$

KYZ054-064>069-076>088-106>120-220000-
SOUTHEAST KENTUCKY

CITY           SKY/WX    TMP DP  RH WIND       PRES   REMARKS
JACKSON        CLEAR     77  66  68 CALM      30.07F
LONDON         CLEAR     82  64  54 NE3       30.06S
SOMERSET       NOT AVBL
MIDDLESBORO    CLEAR     77  67  71 CALM      30.06F
MONTICELLO     CLEAR     81  68  64 W6        30.06F
$$




USA.gov is the U.S. government's official web portal to all federal, state and local government web resources and services.